Weather History for Fort Campbell, KY

Change the Weather History Date:

Tuesday, March 4, 2014

  Actual Average Record
Temperature  
Mean Temperature 20 °F -  
Max Temperature 28 °F 51 °F 75 °F (2004)
Min Temperature 13 °F 32 °F 10 °F (2002)
Degree Days  
Heating Degree Days 44    
Moisture  
Dew Point 23 °F    
Average Humidity 94    
Maximum Humidity 100    
Minimum Humidity 80    
Precipitation  
Precipitation 0.09 in - - ()
Sea Level Pressure  
Sea Level Pressure 30.24 in    
Wind  
Wind Speed 4 mph (ENE)    
Max Wind Speed 8 mph    
Max Gust Speed -    
Visibility 9 miles    
Events      
Averages and records for this station are not official NWS values.
T = Trace of Precipitation, MM = Missing Value Source: NWS Daily Summary

Daily Weather History Graph

Daily Weather History Graph

Search for Another Location

Airport:

Trip Planner

Search our weather history database for the weather conditions in past years. The results will help you decide how hot, cold, wet, or windy it might be!

Date:

Astronomy

Mar. 04, 2014 Rise Set
Actual Time 6:16 AM CST 5:47 PM CST
Civil Twilight 5:50 AM CST 6:13 PM CST
Nautical Twilight 5:20 AM CST 6:43 PM CST
Astronomical Twilight 4:50 AM CST 7:13 PM CST
Moon 8:08 AM CST (3/4) 9:46 PM CST (3/4)
Length of Visible Light 12h 22m
Length of Day
11h 30m
Waxing Crescent, 15% of the Moon is Illuminated
Mar 4
Waxing Crescent
Mar 8
First Quarter
Mar 16
Full
Mar 23
Last Quarter
Mar 30
New

Hourly Weather History & Observations

Time (CST) Temp. Windchill Dew Point Humidity Pressure Visibility Wind Dir Wind Speed Gust Speed Precip Events Conditions
12:58 AM 13.3 °F 7.3 °F 13.1 °F 99% 30.34 in 10.0 mi NNE 3.5 mph - N/A   Clear
1:58 AM 15.3 °F 7.9 °F 14.5 °F 97% 30.32 in 10.0 mi NNE 4.6 mph - N/A   Partly Cloudy
2:58 AM 14.5 °F 7.1 °F 14.2 °F 98% 30.32 in 10.0 mi NNE 4.6 mph - N/A   Clear
3:58 AM 14.7 °F 5.9 °F 13.3 °F 94% 30.31 in 10.0 mi NNE 5.8 mph - N/A   Clear
4:58 AM 14.2 °F 6.7 °F 12.6 °F 93% 30.29 in 10.0 mi ENE 4.6 mph - N/A   Clear
5:58 AM 14.0 °F - 12.0 °F 92% 30.30 in 10.0 mi NE 2.3 mph - N/A   Clear
6:58 AM 14.0 °F 8.2 °F 11.8 °F 91% 30.32 in 10.0 mi NE 3.5 mph - N/A   Clear
7:58 AM 16.5 °F 11.0 °F 12.7 °F 85% 30.34 in 10.0 mi ENE 3.5 mph - N/A   Clear
8:58 AM 17.4 °F 9.1 °F 13.1 °F 83% 30.32 in 10.0 mi East 5.8 mph - N/A   Clear
9:58 AM 19.4 °F 14.3 °F 14.9 °F 83% 30.32 in 10.0 mi NE 3.5 mph - N/A   Mostly Cloudy
10:58 AM 21.6 °F - 16.5 °F 81% 30.32 in 10.0 mi ESE 2.3 mph - N/A   Mostly Cloudy
11:31 AM 23.0 °F 18.4 °F 17.6 °F 80% 30.27 in 10.0 mi ENE 3.5 mph - N/A   Partly Cloudy
11:58 AM 23.2 °F - 18.3 °F 82% 30.28 in 10.0 mi NE 1.2 mph - N/A   Scattered Clouds
12:16 PM 24.8 °F 20.5 °F 19.4 °F 80% 30.24 in 10.0 mi NE 3.5 mph - N/A   Mostly Cloudy
12:58 PM 25.2 °F - 21.0 °F 84% 30.25 in 10.0 mi ENE 2.3 mph - N/A   Overcast
1:21 PM 24.8 °F 20.5 °F 21.2 °F 86% 30.19 in 10.0 mi NE 3.5 mph - N/A   Overcast
1:58 PM 26.2 °F - 22.5 °F 86% 30.22 in 10.0 mi NNE 1.2 mph - 0.02 in   Overcast
2:13 PM 26.6 °F 22.6 °F 23.0 °F 86% 30.19 in 10.0 mi NNE 3.5 mph - N/A   Overcast
2:58 PM 27.1 °F 21.8 °F 24.6 °F 90% 30.21 in 10.0 mi NNE 4.6 mph - 0.04 in   Overcast
3:58 PM 27.7 °F 23.8 °F 26.1 °F 94% 30.21 in 10.0 mi NNE 3.5 mph - 0.02 in   Overcast
4:58 PM 27.9 °F 22.6 °F 26.4 °F 94% 30.22 in 10.0 mi ENE 4.6 mph - 0.01 in   Overcast
5:00 PM 28.4 °F 23.3 °F 26.6 °F 93% 30.19 in 10.0 mi East 4.6 mph - N/A   Overcast
5:11 PM 28.4 °F 23.3 °F 26.6 °F 93% 30.19 in 10.0 mi ENE 4.6 mph - N/A   Overcast
5:55 PM 28.4 °F 22.2 °F 28.4 °F 100% 30.20 in 10.0 mi East 5.8 mph - N/A   Overcast
5:58 PM 28.2 °F 22.0 °F 27.9 °F 99% 30.22 in 10.0 mi East 5.8 mph - N/A   Overcast
6:58 PM 28.0 °F 21.7 °F 27.9 °F 99% 30.23 in 10.0 mi East 5.8 mph - N/A   Overcast
7:42 PM 28.4 °F 22.2 °F 28.4 °F 100% 30.19 in 10.0 mi East 5.8 mph - N/A   Overcast
7:55 PM 28.4 °F 23.3 °F 28.4 °F 100% 30.19 in 10.0 mi ENE 4.6 mph - N/A   Overcast
7:58 PM 28.2 °F 23.1 °F 28.0 °F 99% 30.23 in 10.0 mi ENE 4.6 mph - N/A   Overcast
8:37 PM 28.4 °F 23.3 °F 26.6 °F 93% 30.19 in 10.0 mi East 4.6 mph - N/A   Scattered Clouds
8:56 PM 26.6 °F - 26.6 °F 100% 30.20 in 10.0 mi ENE 2.3 mph - N/A   Mostly Cloudy
8:58 PM 27.1 °F - 27.0 °F 99% 30.23 in 10.0 mi East 2.3 mph - N/A   Mostly Cloudy
9:58 PM 27.1 °F - 27.1 °F 100% 30.23 in 9.0 mi SSE 2.3 mph - N/A   Overcast
10:46 PM 28.4 °F 23.3 °F 28.4 °F 100% 30.19 in 10.0 mi SE 4.6 mph - N/A   Overcast
10:58 PM 28.0 °F 22.8 °F 28.0 °F 100% 30.22 in 10.0 mi SE 4.6 mph - N/A   Overcast
11:00 PM 28.4 °F 23.3 °F 28.4 °F 100% 30.19 in 10.0 mi SE 4.6 mph - N/A   Overcast
11:07 PM 28.4 °F 22.2 °F 28.4 °F 100% 30.19 in 9.0 mi SE 5.8 mph - N/A   Overcast
11:09 PM 28.4 °F 22.2 °F 28.4 °F 100% 30.19 in 9.0 mi SE 5.8 mph - N/A   Overcast
11:16 PM 28.4 °F 21.2 °F 28.4 °F 100% 30.19 in 8.0 mi SE 6.9 mph - N/A   Overcast
11:29 PM 28.4 °F 20.4 °F 28.4 °F 100% 30.19 in 5.0 mi SSE 8.1 mph - N/A   Overcast
11:42 PM 28.4 °F 21.2 °F 28.4 °F 100% 30.19 in 2.5 mi SE 6.9 mph - N/A   Overcast
11:58 PM 28.4 °F 22.2 °F 28.4 °F 100% 30.21 in 2.5 mi ESE 5.8 mph - N/A   Overcast